CAPE
0 0 0 0 0 0 0 0 0 0 0 0 0 0 0 0 0 0 78 157 40 104 976 1803 2079 2151 1998 1879 1927 1893 1850 1949 2064 2123 2071 2018 2016 1941 1807 1639 1376 871 317 0 0 0 0 0 0
0 0 0 0 0 0 0 0 0 0 0 0 0 0 0 0 0 0 0 127 83 435 1678 1307 2140 2117 2029 1777 1692 1614 1712 1765 1758 1758 1851 1854 1744 1629 1443 1172 787 304 27 0 0 0 0 0 0
0 0 0 0 0 0 0 0 0 0 0 0 0 0 0 0 0 0 67 28 87 319 1185 1634 2139 2085 2032 1841 1618 1457 1513 1537 1527 1511 1498 1440 1360 1256 1111 888 714 131 0 0 0 0 0 0 0
0 0 0 0 0 0 0 0 0 0 0 0 0 0 0 181 229 277 157 0 148 296 429 1726 2085 2031 1967 1947 1704 1518 1506 1494 1446 1436 1398 1282 1189 1037 812 703 455 170 9 0 0 0 0 0 0
0 0 0 0 0 0 0 0 0 0 0 0 0 0 0 46 7 105 66 0 107 245 360 1531 2109 2085 1986 1979 1861 1708 1671 1536 1509 1527 1435 1296 1165 916 714 595 399 289 191 64 23 36 80 68 9
0 0 0 0 0 0 0 0 0 0 0 0 0 0 0 0 136 75 27 0 65 256 397 1059 2136 2111 1983 1867 1840 1687 1625 1582 1593 1553 1501 1399 1111 853 676 573 498 476 312 146 109 129 140 131 112
0 0 0 0 0 0 0 0 0 0 0 0 0 0 0 0 131 36 2 0 114 202 367 1127 1410 2039 2105 1944 1764 1695 1625 1535 1520 1479 1439 1365 1149 853 668 544 578 592 395 239 196 225 229 193 134
0 0 0 0 0 0 0 0 0 0 0 0 0 0 0 0 115 95 31 55 96 175 230 760 985 1363 1518 1532 1922 1848 1756 1625 1512 1516 1486 1398 1227 954 723 451 516 634 529 390 367 373 392 341 232
0 0 0 0 0 0 0 0 0 0 0 0 0 0 0 0 144 146 83 44 44 165 373 648 1034 1293 1315 958 1453 1904 1813 1756 1615 1599 1599 1248 709 770 496 189 317 643 629 525 551 523 568 485 191
0 0 0 0 0 0 0 0 0 0 0 0 0 0 0 0 82 217 170 70 16 64 343 569 1036 1167 1310 1097 1343 1558 1418 1336 1345 1355 1431 1262 1122 1082 577 409 429 613 685 628 639 660 711 332 39
0 0 0 0 0 0 0 0 0 0 0 0 0 0 0 0 0 0 230 153 32 36 113 352 901 1218 1132 910 1375 1480 1430 1460 1368 1277 1345 1294 996 983 990 604 454 252 368 54 142 127 59 44 82
0 0 0 0 0 0 0 0 0 0 0 0 0 0 0 0 0 0 0 166 112 16 38 210 542 942 1122 894 975 1086 1100 1519 1014 923 1049 1210 797 840 942 690 432 490 209 166 124 53 70 117 93
0 0 0 0 0 0 0 0 0 0 0 0 0 0 0 0 0 0 0 127 247 63 102 139 363 588 725 656 545 874 863 1090 920 897 1139 1111 757 849 824 722 511 338 219 158 137 61 87 66 63
0 0 0 0 0 0 0 0 0 0 0 0 0 0 0 0 0 0 0 45 297 361 170 208 319 475 551 502 559 684 863 723 763 677 767 1011 907 1034 613 618 444 302 222 119 88 61 38 19 2
0 0 0 0 0 0 0 0 0 0 0 0 0 0 0 0 0 0 0 0 36 470 633 506 576 582 648 378 471 430 257 272 375 387 543 490 637 751 588 318 252 186 158 159 104 115 72 10 0
0 0 0 0 0 0 0 0 0 0 0 0 0 0 0 0 0 0 0 0 0 201 786 833 235 278 365 405 366 163 89 203 201 147 122 290 231 181 301 95 58 42 48 26 22 53 29 13 1
0 0 0 0 0 0 0 0 0 0 0 0 0 0 0 0 0 0 0 0 0 8 613 1421 1142 364 313 308 263 152 34 27 74 91 58 119 88 104 166 51 90 65 6 24 34 42 32 30 26
0 0 0 0 0 0 0 0 0 0 0 0 0 0 0 0 0 0 0 0 0 0 7 615 1889 1549 853 507 274 32 140 70 38 79 68 89 52 67 50 36 88 37 1 50 76 84 101 76 90
0 0 0 0 0 0 0 0 0 0 0 0 0 0 0 0 0 0 0 0 0 0 0 0 360 1648 1727 1345 871 636 253 516 738 517 484 404 66 90 59 177 138 91 149 212 245 225 258 286 133
0 0 0 0 0 0 0 0 0 0 0 0 0 0 0 0 0 0 0 0 0 0 0 0 0 102 862 1176 1394 1264 975 1053 912 849 902 696 323 344 479 807 546 380 325 367 402 349 484 448 308
0 0 0 0 0 0 0 0 0 0 0 0 0 0 0 0 0 0 0 0 0 0 0 0 0 0 13 485 1235 1377 1210 1235 1312 1430 1604 1544 970 1024 1213 1078 977 761 541 711 675 604 685 1052 408
0 0 0 0 0 0 0 0 0 0 0 0 0 0 0 0 0 0 0 0 0 0 0 0 0 0 0 6 321 1364 1318 1377 1469 1730 1795 1869 1446 1501 1437 1557 1149 1086 949 1140 961 701 844 884 1000
0 0 0 0 0 0 0 0 0 0 0 0 0 0 0 0 0 0 0 0 0 0 0 0 0 0 0 0 4 237 975 918 1531 1527 2505 2916 2153 1830 1795 1825 1499 1441 1322 1227 1138 731 873 867 920
0 0 0 0 0 0 0 0 0 0 0 0 0 0 0 0 0 0 0 0 0 0 0 0 0 0 0 0 0 20 454 1141 1051 1384 1217 1495 1696 1980 2181 1953 1822 1801 1551 1351 1329 1054 1054 983 924
0 0 0 0 0 0 0 0 0 0 0 0 0 0 0 0 0 0 0 0 0 0 0 0 0 0 0 0 0 1 97 500 955 1283 931 1378 1247 1314 1715 1856 1930 1820 1867 1783 1505 1166 1133 1072 1122
0 0 0 0 0 0 0 0 0 0 0 0 0 0 0 0 0 0 0 0 0 0 0 0 0 0 0 0 0 0 23 138 447 880 794 1053 1035 1052 1514 1396 1675 1780 1498 1473 1297 1183 1221 1284 1344
0 0 0 0 3 1 0 0 0 0 0 0 0 0 0 0 0 0 0 0 0 0 0 0 0 0 0 0 0 0 0 188 631 1689 1742 1028 1418 818 1011 1179 1462 1524 1583 1568 1581 1536 1638 1614 1570
0 0 4 24 8 0 0 0 0 0 0 0 0 0 0 0 0 0 0 0 0 0 0 0 0 0 0 0 0 0 0 34 342 807 958 1255 858 686 842 1239 1629 1738 1759 1984 1931 1922 1868 1826 1724
0 0 1 3 20 19 3 0 0 0 0 0 0 0 0 0 0 0 0 0 0 0 0 0 0 0 0 0 0 0 0 5 55 256 442 623 788 783 918 1267 1585 1818 2234 2132 2139 2041 1864 1778 1311
0 0 3 26 19 18 22 0 0 0 0 0 0 0 0 0 0 0 0 0 0 0 0 0 0 0 0 0 0 0 0 10 32 149 259 473 743 827 1014 1335 1622 2091 2238 2186 2042 1975 1555 1310 1153
CIN
-0 -0 -0 -0 -0 -0 -0 -0 -0 -0 -0 -0 -0 -0 -0 -0 -0 -0 -428 -526 -593 -562 -509 -341 -242 -216 -222 -217 -200 -171 -162 -139 -124 -101 -102 -89 -79 -73 -61 -49 -65 -125 -189 -0 -0 -0 -0 -0 -0
-0 -0 -0 -0 -0 -0 -0 -0 -0 -0 -0 -0 -0 -0 -0 -0 -0 -0 -0 -526 -583 -564 -456 -424 -249 -210 -230 -263 -270 -252 -228 -194 -179 -157 -144 -128 -112 -100 -108 -128 -164 -231 -154 -0 -0 -0 -0 -0 -0
-0 -0 -0 -0 -0 -0 -0 -0 -0 -0 -0 -0 -0 -0 -0 -0 -0 -0 -489 -646 -641 -587 -506 -404 -253 -214 -219 -263 -315 -321 -304 -274 -245 -204 -196 -184 -191 -170 -176 -197 -204 -302 -0 -0 -0 -0 -0 -0 -0
-0 -0 -0 -0 -0 -0 -0 -0 -0 -0 -0 -0 -0 -0 -0 -252 -337 -424 -536 -0 -651 -597 -538 -400 -261 -209 -190 -226 -311 -338 -330 -311 -298 -264 -249 -241 -226 -223 -232 -230 -263 -330 -340 -0 -0 -0 -0 -0 -0
-0 -0 -0 -0 -0 -0 -0 -0 -0 -0 -0 -0 -0 -0 -0 -290 -71 -634 -630 -0 -583 -555 -542 -405 -280 -213 -187 -193 -262 -307 -324 -334 -317 -280 -272 -269 -264 -273 -276 -272 -302 -305 -333 -346 -393 -382 -361 -363 -96
-0 -0 -0 -0 -0 -0 -0 -0 -0 -0 -0 -0 -0 -0 -0 -0 -502 -710 -737 -22 -563 -548 -569 -449 -288 -248 -222 -220 -259 -293 -322 -337 -320 -299 -286 -281 -307 -319 -322 -317 -311 -298 -308 -349 -361 -342 -315 -313 -315
-0 -0 -0 -0 -0 -0 -0 -0 -0 -0 -0 -0 -0 -0 -0 -0 -619 -818 -405 -0 -578 -545 -539 -423 -356 -258 -224 -232 -258 -285 -297 -329 -330 -312 -308 -313 -327 -354 -352 -351 -318 -306 -323 -369 -370 -327 -302 -290 -306
-0 -0 -0 -0 -0 -0 -0 -0 -0 -0 -0 -0 -0 -0 -0 -0 -596 -685 -784 -739 -600 -564 -491 -416 -405 -325 -280 -276 -246 -257 -258 -289 -308 -289 -279 -298 -299 -324 -342 -386 -341 -301 -303 -329 -351 -311 -312 -287 -274
-0 -0 -0 -0 -0 -0 -0 -0 -0 -0 -0 -0 -0 -0 -0 -0 -484 -515 -604 -662 -630 -595 -485 -458 -397 -353 -324 -322 -291 -243 -232 -236 -256 -243 -223 -268 -309 -317 -354 -431 -389 -299 -300 -307 -298 -268 -271 -267 -315
-0 -0 -0 -0 -0 -0 -0 -0 -0 -0 -0 -0 -0 -0 -0 -0 -386 -359 -395 -481 -582 -599 -554 -464 -441 -386 -363 -359 -305 -289 -295 -278 -258 -244 -221 -225 -244 -258 -344 -373 -367 -301 -269 -264 -265 -230 -222 -302 -359
-0 -0 -0 -0 -0 -0 -0 -0 -0 -0 -0 -0 -0 -0 -0 -0 -0 -0 -303 -323 -507 -533 -563 -527 -469 -409 -404 -419 -329 -290 -299 -280 -282 -278 -273 -258 -288 -307 -290 -333 -360 -409 -354 -452 -432 -415 -428 -414 -339
-0 -0 -0 -0 -0 -0 -0 -0 -0 -0 -0 -0 -0 -0 -0 -0 -0 -0 -0 -260 -383 -565 -587 -515 -524 -456 -431 -414 -419 -371 -379 -324 -394 -415 -379 -333 -381 -357 -328 -346 -378 -369 -422 -404 -450 -450 -448 -399 -403
-0 -0 -0 -0 -0 -0 -0 -0 -0 -0 -0 -0 -0 -0 -0 -0 -0 -0 -0 -442 -219 -398 -499 -547 -551 -537 -501 -515 -509 -444 -427 -406 -449 -457 -396 -414 -478 -395 -370 -389 -410 -419 -442 -464 -467 -490 -456 -454 -435
-0 -0 -0 -0 -0 -0 -0 -0 -0 -0 -0 -0 -0 -0 -0 -0 -0 -0 -0 -389 -282 -239 -339 -454 -595 -529 -553 -552 -509 -485 -486 -493 -499 -502 -478 -470 -478 -413 -420 -437 -449 -469 -467 -507 -537 -497 -492 -474 -480
-0 -0 -0 -0 -0 -0 -0 -0 -0 -0 -0 -0 -0 -0 -0 -0 -0 -0 -0 -0 -449 -253 -268 -377 -443 -488 -477 -652 -560 -524 -544 -547 -520 -547 -572 -598 -563 -533 -493 -519 -544 -530 -544 -580 -600 -538 -513 -498 -13
-0 -0 -0 -0 -0 -0 -0 -0 -0 -0 -0 -0 -0 -0 -0 -0 -0 -0 -0 -0 -0 -369 -280 -306 -444 -505 -551 -518 -542 -612 -657 -600 -536 -589 -620 -651 -692 -696 -637 -642 -608 -619 -581 -639 -648 -569 -508 -472 -160
-0 -0 -0 -0 -0 -0 -0 -0 -0 -0 -0 -0 -0 -0 -0 -0 -0 -0 -0 -0 -0 -127 -318 -244 -260 -381 -588 -618 -527 -566 -690 -734 -570 -593 -558 -725 -707 -716 -721 -663 -589 -712 -652 -635 -623 -559 -510 -394 -376
-0 -0 -0 -0 -0 -0 -0 -0 -0 -0 -0 -0 -0 -0 -0 -0 -0 -0 -0 -0 -0 -0 -107 -333 -200 -221 -393 -392 -512 -480 -514 -652 -607 -625 -557 -694 -680 -736 -759 -638 -696 -703 -227 -568 -583 -521 -443 -356 -292
-0 -0 -0 -0 -0 -0 -0 -0 -0 -0 -0 -0 -0 -0 -0 -0 -0 -0 -0 -0 -0 -0 -0 -2 -416 -227 -193 -216 -263 -302 -435 -369 -407 -481 -506 -608 -810 -829 -742 -575 -723 -706 -557 -503 -492 -432 -359 -289 -292
-0 -0 -0 -0 -0 -0 -0 -0 -0 -0 -0 -0 -0 -0 -0 -0 -0 -0 -0 -0 -0 -0 -0 -0 -0 -489 -355 -289 -257 -199 -269 -246 -305 -367 -466 -565 -671 -604 -486 -385 -452 -545 -457 -462 -440 -389 -277 -245 -221
-0 -0 -0 -0 -0 -0 -0 -0 -0 -0 -0 -0 -0 -0 -0 -0 -0 -0 -0 -0 -0 -0 -0 -0 -0 -0 -546 -455 -217 -237 -216 -219 -234 -221 -278 -405 -498 -437 -401 -412 -397 -456 -438 -344 -376 -337 -264 -97 -187
-0 -0 -0 -0 -0 -0 -0 -0 -0 -0 -0 -0 -0 -0 -0 -0 -0 -0 -0 -0 -0 -0 -0 -0 -0 -0 -0 -168 -416 -207 -171 -153 -138 -150 -187 -294 -427 -387 -410 -371 -425 -397 -368 -318 -314 -329 -226 -133 -70
-0 -0 -0 -0 -0 -0 -0 -0 -0 -0 -0 -0 -0 -0 -0 -0 -0 -0 -0 -0 -0 -0 -0 -0 -0 -0 -0 -0 -186 -394 -271 -207 -179 -156 -167 -209 -322 -360 -348 -327 -385 -358 -335 -332 -311 -322 -232 -126 -79
-0 -0 -0 -0 -0 -0 -0 -0 -0 -0 -0 -0 -0 -0 -0 -0 -0 -0 -0 -0 -0 -0 -0 -0 -0 -0 -0 -0 -0 -690 -397 -281 -226 -230 -280 -270 -305 -328 -307 -301 -315 -297 -316 -309 -262 -251 -173 -118 -85
-0 -0 -0 -0 -0 -0 -0 -0 -0 -0 -0 -0 -0 -0 -0 -0 -0 -0 -0 -0 -0 -0 -0 -0 -0 -0 -0 -0 -0 -417 -566 -441 -354 -312 -284 -261 -319 -377 -348 -323 -310 -302 -273 -227 -208 -194 -138 -99 -70
-0 -0 -0 -0 -0 -0 -0 -0 -0 -0 -0 -0 -0 -0 -0 -0 -0 -0 -0 -0 -0 -0 -0 -0 -0 -0 -0 -0 -0 -0 -586 -451 -412 -358 -332 -328 -322 -332 -315 -366 -290 -271 -261 -233 -196 -154 -89 -62 -43
-0 -0 -0 -0 -0 -0 -0 -0 -0 -0 -0 -0 -0 -0 -0 -0 -0 -0 -0 -0 -0 -0 -0 -0 -0 -0 -0 -0 -0 -0 -0 -430 -314 -260 -294 -295 -300 -342 -391 -296 -260 -252 -217 -174 -128 -73 -52 -33 -19
-0 -0 -0 -0 -0 -0 -0 -0 -0 -0 -0 -0 -0 -0 -0 -0 -0 -0 -0 -0 -0 -0 -0 -0 -0 -0 -0 -0 -0 -0 -0 -484 -404 -328 -354 -332 -386 -389 -314 -246 -219 -202 -155 -95 -68 -38 -17 -2 -2
-0 -0 -1 -0 -0 -0 -0 -0 -0 -0 -0 -0 -0 -0 -0 -0 -0 -0 -0 -0 -0 -0 -0 -0 -0 -0 -0 -0 -0 -0 -0 -320 -467 -438 -423 -397 -397 -351 -280 -221 -193 -148 -79 -71 -36 -16 -2 -0 -16
-0 -0 -0 -0 -0 -0 -0 -0 -0 -0 -0 -0 -0 -0 -0 -0 -0 -0 -0 -0 -0 -0 -0 -0 -0 -0 -0 -0 -0 -0 -0 -417 -486 -497 -461 -426 -356 -312 -238 -184 -146 -90 -57 -32 -13 -1 -2 -12 -28
Wind_Speed
4 5 2 0 4 1 2 4 1 4 2 2 5 6 6 9 4 3 4 16 16 24 23 24 22 20 20 19 20 19 18 18 18 18 18 17 17 17 15 14 12 12 12 11 10 11 10 10 10
3 4 2 2 3 5 4 3 8 5 4 12 8 2 4 11 7 13 5 16 21 23 21 23 23 21 21 21 21 20 19 18 18 17 18 17 15 14 14 13 13 13 12 11 11 11 11 11 10
2 3 1 2 3 5 2 4 5 3 10 4 4 3 5 5 4 5 8 18 22 22 22 21 24 21 21 21 22 21 21 20 19 17 17 16 16 14 14 14 13 13 13 13 13 12 12 11 11
2 2 3 3 9 3 4 1 3 9 3 4 3 11 5 7 10 11 10 16 22 21 23 22 23 21 20 20 21 21 21 21 21 20 19 17 16 15 14 13 12 12 13 12 12 11 11 10 11
2 1 3 4 4 2 5 7 7 12 7 7 5 6 9 8 18 9 8 18 24 22 20 21 23 20 19 19 19 20 21 21 21 20 19 19 17 16 14 13 13 12 11 10 11 10 10 10 10
3 1 5 9 5 3 3 5 4 3 3 8 10 13 3 13 18 7 8 18 20 24 21 21 22 20 19 19 19 19 19 20 20 19 19 19 18 17 16 14 13 12 12 12 11 10 9 9 8
5 4 9 12 5 6 3 2 3 0 5 3 11 7 7 20 12 6 5 12 17 20 20 19 20 18 17 17 16 17 17 18 18 18 18 18 17 17 15 14 13 13 12 12 12 11 10 8 7
4 4 9 8 9 11 3 1 3 2 6 7 5 6 10 16 7 4 5 10 13 15 18 19 18 18 17 16 15 14 13 13 13 14 14 15 14 13 13 11 12 13 12 11 11 12 11 10 8
2 7 11 14 12 10 3 0 1 1 8 6 3 13 10 10 2 1 5 8 10 12 14 16 18 17 16 16 14 12 12 10 10 10 10 9 9 12 13 11 11 12 12 11 10 11 11 10 9
7 8 11 5 14 12 14 9 6 7 8 11 14 9 9 13 3 4 7 10 13 16 16 16 17 17 16 12 14 14 13 11 10 10 11 9 8 8 9 9 10 10 10 10 10 11 10 10 7
4 10 4 5 9 6 13 12 5 8 14 9 14 18 18 15 8 7 10 12 14 15 11 15 14 15 16 13 10 8 7 8 8 11 10 9 7 7 7 6 7 8 11 8 10 10 9 10 6
5 1 4 7 4 5 8 7 8 11 15 10 15 18 18 13 10 10 8 9 13 17 15 15 15 14 14 10 10 10 9 9 9 11 13 9 7 8 8 7 8 8 7 10 8 7 8 9 9
4 2 3 6 6 6 8 15 14 16 14 14 15 14 12 11 9 7 5 6 12 15 15 16 14 13 12 11 9 9 11 10 11 11 13 11 10 9 9 8 8 8 8 8 8 8 8 9 10
2 3 7 7 8 7 10 18 6 7 10 14 17 19 14 13 13 7 3 6 10 14 15 18 15 14 12 12 12 8 8 10 9 9 11 14 10 9 9 9 9 8 8 8 8 8 7 8 8
2 4 6 10 5 7 7 17 13 12 10 13 10 10 8 8 9 8 6 6 9 12 12 16 15 17 15 14 13 10 8 8 9 10 12 13 12 9 10 9 8 8 8 9 7 8 8 8 8
1 1 3 3 0 4 6 7 4 11 10 7 11 10 8 10 10 9 8 7 7 8 10 12 12 16 15 13 11 9 8 7 9 9 8 13 12 11 10 8 8 7 8 8 7 7 8 8 8
2 1 1 2 4 6 2 5 8 10 7 12 11 9 10 9 10 9 8 8 8 7 8 8 12 14 13 11 11 10 9 8 10 9 9 9 10 12 10 9 9 9 8 8 7 7 8 7 7
2 2 1 4 3 8 8 11 13 13 9 9 10 9 8 9 11 10 10 9 8 6 7 7 9 12 8 7 7 9 8 7 7 8 9 10 9 10 7 8 8 8 8 8 7 8 7 7 5
3 3 2 3 2 10 13 17 16 15 13 11 9 9 7 7 9 10 13 11 8 5 6 4 9 10 9 9 10 10 12 11 9 9 10 10 10 11 8 7 9 8 10 9 10 8 9 6 5
5 4 4 5 6 9 15 21 19 16 15 15 12 9 8 5 7 11 12 11 10 8 7 6 5 7 9 8 7 9 8 10 11 10 11 12 13 13 12 12 8 10 8 12 11 10 5 5 6
5 5 3 5 4 12 10 15 4 7 9 9 10 11 9 10 8 9 9 11 11 12 11 8 7 6 8 11 9 7 6 4 6 9 10 13 16 16 16 14 10 11 11 10 11 11 10 7 5
7 6 4 7 9 8 5 7 10 8 9 10 14 13 12 11 10 7 9 10 9 11 11 11 8 7 5 9 11 15 13 12 11 11 10 10 16 17 16 13 13 13 10 10 10 9 9 9 8
3 2 5 8 12 8 7 8 4 9 9 9 9 11 14 16 11 6 8 10 12 11 11 11 12 11 8 5 10 11 13 10 10 9 10 11 10 14 14 15 16 14 10 10 10 10 11 9 8
2 3 7 2 3 6 1 5 6 5 5 4 12 14 13 9 7 6 6 9 11 11 11 10 11 12 10 8 6 11 13 12 11 12 10 9 8 9 13 14 13 12 10 10 10 10 12 11 11
2 4 6 4 4 4 5 10 13 7 11 15 13 11 10 6 7 7 8 11 12 14 13 10 10 14 13 13 10 9 13 14 14 13 9 10 8 8 10 13 13 11 11 9 9 11 10 12 11
4 4 5 6 5 8 10 13 2 2 5 11 8 9 8 7 5 8 11 13 12 13 14 14 12 13 12 14 14 9 12 11 10 11 10 10 9 10 8 12 12 11 10 9 10 9 9 11 10
4 7 5 11 11 10 8 12 17 11 8 9 11 12 14 11 8 10 13 13 14 14 15 14 16 15 13 14 13 12 12 14 12 14 11 11 10 8 9 12 11 9 9 11 11 9 10 10 10
10 6 4 3 6 7 8 17 14 13 13 11 13 12 10 8 14 13 14 16 15 16 15 15 15 16 15 14 14 13 13 14 14 12 13 12 11 11 10 11 10 10 10 12 12 9 10 10 7
6 9 3 4 5 6 10 7 5 11 7 11 11 13 15 17 16 19 20 18 17 17 16 15 14 15 15 15 15 15 14 14 13 13 13 13 10 11 11 12 11 12 12 12 12 11 10 10 9
9 10 10 6 7 8 10 17 14 15 13 9 13 16 19 20 21 20 21 21 18 15 15 14 13 14 14 16 16 16 14 13 13 15 14 12 13 12 12 12 13 13 13 13 13 12 10 11 11
Wind_Direction
340 60 354 339 219 274 223 230 232 200 212 272 303 293 292 298 183 229 44 175 153 152 159 167 172 173 165 158 152 150 146 144 143 145 146 146 145 145 144 144 147 146 147 141 133 125 124 121 120
336 97 88 104 229 216 207 237 223 225 307 318 303 273 243 263 245 266 257 165 164 155 155 169 172 176 169 165 158 154 150 151 150 151 149 148 144 145 144 148 152 153 150 145 141 133 130 129 128
141 77 230 247 188 220 228 220 252 198 300 252 291 263 277 254 218 304 339 162 158 162 159 167 174 177 175 170 163 161 157 157 154 154 150 151 149 152 154 156 158 162 159 156 151 147 143 139 132
153 128 113 233 240 227 237 354 202 298 321 191 306 285 269 45 331 307 306 171 158 165 164 160 171 176 179 177 169 166 162 161 158 159 157 156 156 158 160 163 164 168 165 165 157 153 148 145 139
48 109 200 252 246 259 249 278 269 289 299 283 342 303 301 335 324 311 193 174 166 163 167 164 167 174 179 184 176 172 168 166 164 163 161 161 163 163 165 170 169 174 171 171 164 160 155 155 154
155 201 211 241 235 222 240 255 284 284 278 300 333 320 292 338 343 343 177 176 173 159 167 169 167 173 179 185 182 180 177 169 167 168 166 167 167 167 171 174 176 180 180 176 173 169 169 164 165
197 196 227 246 236 253 218 167 237 303 309 312 334 308 343 351 351 15 146 173 171 164 164 169 174 176 179 181 188 183 185 175 171 172 171 170 171 172 174 176 182 184 187 184 176 176 174 175 185
175 230 220 231 234 253 184 243 281 214 303 328 334 2 338 341 341 58 131 159 173 172 167 171 174 181 185 186 186 185 187 180 172 173 177 171 173 174 177 178 191 190 195 192 182 185 177 181 198
175 220 231 226 218 229 187 237 207 13 292 300 301 309 336 346 280 131 151 164 175 178 174 176 174 180 186 191 187 181 182 177 173 176 179 166 187 184 185 196 189 199 198 200 195 198 187 187 200
224 226 218 227 234 235 231 255 290 291 289 286 293 295 322 334 315 293 215 204 199 195 187 185 182 183 183 188 192 188 188 188 193 191 189 196 198 203 199 196 204 208 210 212 206 208 196 199 216
174 252 205 165 254 268 266 270 230 286 276 286 304 313 320 320 301 296 252 220 211 206 197 203 194 190 190 191 187 190 186 183 187 197 191 195 200 211 203 205 200 210 209 224 210 213 221 220 219
195 230 290 248 286 307 273 307 242 231 267 292 290 291 292 295 308 305 303 245 200 218 206 206 202 199 196 196 197 192 191 186 191 191 193 188 195 211 209 207 209 213 212 218 219 222 228 228 224
205 175 292 295 295 289 289 269 284 283 275 282 291 291 283 289 303 309 290 287 250 212 202 204 204 199 194 200 198 202 203 199 196 190 198 193 194 210 212 214 211 217 215 220 220 227 226 229 233
169 235 276 279 262 252 260 266 273 252 325 307 297 288 284 294 299 301 287 260 239 234 216 189 190 207 195 202 212 217 205 202 201 203 207 203 201 211 207 218 223 223 222 221 230 231 232 237 239
298 277 274 243 252 245 263 262 258 288 245 258 299 302 319 324 316 326 324 258 261 235 231 205 194 184 197 195 206 219 222 219 217 215 204 213 209 194 223 226 225 228 227 221 225 234 235 240 236
193 170 242 101 241 56 218 245 260 21 344 330 320 304 318 331 327 331 341 335 307 265 221 217 198 194 200 202 201 206 207 210 225 231 226 208 201 196 199 226 228 235 242 229 222 225 238 243 238
39 132 352 311 63 24 358 297 289 336 324 310 305 298 306 311 318 326 331 343 332 288 256 206 206 215 199 201 199 205 197 202 225 213 221 228 236 222 183 205 223 186 233 232 227 225 233 239 243
134 144 200 312 347 339 304 278 286 295 285 274 285 286 283 293 302 313 322 335 337 330 281 238 201 215 214 215 202 209 217 222 219 229 222 200 217 207 216 228 187 196 218 224 222 226 219 243 247
175 186 249 282 266 320 301 293 287 283 282 273 261 269 266 273 293 319 321 329 342 353 358 284 225 216 190 200 214 220 218 220 221 224 218 201 195 185 222 226 193 199 217 224 214 206 220 224 222
195 204 228 278 277 308 301 292 285 268 260 255 249 239 249 263 290 310 316 317 332 328 342 345 293 241 219 212 215 226 216 218 219 214 211 200 196 193 208 217 197 204 212 219 208 203 203 225 196
219 240 221 280 286 268 298 284 246 277 242 239 236 246 259 247 263 284 297 311 319 324 330 328 316 288 251 227 222 216 229 239 202 210 214 209 197 201 205 208 206 200 209 212 204 202 206 221 203
270 214 246 288 314 312 346 288 238 262 246 252 263 263 255 249 260 255 281 296 313 316 317 316 315 300 240 237 231 221 223 228 227 225 218 205 204 205 203 203 202 206 205 210 205 199 212 215 214
280 215 298 298 293 295 261 256 160 182 262 255 261 267 274 282 280 258 282 301 311 314 313 310 313 304 300 236 225 231 226 230 242 241 236 215 206 210 205 207 202 201 208 207 201 193 206 208 219
99 275 281 231 251 254 290 257 283 234 182 215 300 284 281 278 266 275 308 309 304 312 314 312 310 303 308 301 262 234 242 225 228 230 230 223 213 206 205 208 206 203 202 201 201 203 207 206 216
152 293 297 251 209 288 175 268 257 245 267 293 288 287 294 267 283 302 325 326 314 316 316 310 298 297 304 295 284 259 244 237 231 238 242 241 220 214 212 206 201 198 198 196 197 201 207 207 212
221 246 269 287 263 295 238 256 223 17 278 280 275 282 289 283 302 295 306 315 309 303 306 303 290 279 287 287 280 270 251 244 231 229 227 235 233 228 205 199 202 193 183 187 193 202 209 204 209
160 227 336 264 279 273 242 260 278 275 300 285 275 258 274 288 301 298 307 311 305 301 295 291 289 281 276 274 274 267 254 241 235 226 215 221 223 220 193 194 197 183 182 188 190 200 195 196 204
225 141 189 192 264 263 262 271 261 294 305 290 284 279 287 290 296 294 297 307 301 294 288 284 273 272 276 273 266 260 252 239 232 231 225 219 206 195 193 190 187 179 186 187 183 185 186 193 196
182 217 211 276 242 268 296 269 197 296 320 309 297 304 312 312 309 306 303 302 295 292 284 282 272 267 270 269 261 254 251 243 234 228 228 222 200 190 190 191 183 185 185 176 177 179 178 192 184
256 248 226 228 204 234 282 274 285 278 304 330 309 306 300 300 298 301 299 298 296 289 287 285 282 277 272 269 266 254 246 235 222 220 219 207 201 189 190 184 186 183 175 171 177 178 183 180 182